Total_Precipitation_Accumulation
0.00 0.00 0.00 0.00 0.00 0.00 0.00 0.00 0.00 0.00 0.00 0.00 0.01 0.00 0.00 0.01 0.00 0.00 0.00 0.00 0.01 -0.00 -0.00 -0.00 -0.00 -0.01 -0.01 -0.01 0.01 0.01 0.01 0.01 0.01 0.01 0.01 0.01 0.01 0.01 0.01 0.01 0.01 0.02 0.02 0.02 0.01 0.01 0.02 0.02 0.02 0.02 0.03 0.03 0.03 0.03 0.03 0.03 0.04 0.05 0.05 0.06 0.07 0.07 0.07 0.08 0.07 0.07 0.07 0.07 0.10
0.00 0.00 0.00 0.00 -0.00 -0.00 0.00 0.00 -0.00 -0.00 0.00 0.00 0.00 0.00 0.00 0.00 0.00 0.00 0.00 0.00 0.01 0.01 0.01 -0.00 0.00 -0.01 -0.01 -0.01 -0.01 -0.01 0.00 0.00 0.01 0.02 0.02 0.01 0.01 0.01 0.01 0.01 0.01 0.01 0.01 0.01 0.01 0.01 0.02 0.02 0.02 0.02 0.03 0.03 0.03 0.03 0.03 0.03 0.04 0.05 0.05 0.06 0.07 0.08 0.08 0.08 0.07 0.07 0.07 0.07 0.09
0.00 -0.00 -0.00 0.00 0.00 0.00 0.00 0.00 0.00 0.00 0.00 0.00 0.00 0.00 0.00 0.00 0.00 0.00 0.00 0.00 0.00 0.01 0.01 0.01 0.01 0.00 0.00 -0.01 -0.03 -0.03 -0.02 -0.01 0.01 0.01 0.01 0.01 0.01 0.01 0.01 0.01 0.01 0.01 0.01 0.01 0.01 0.01 0.01 0.01 0.02 0.02 0.03 0.03 0.03 0.03 0.03 0.03 0.04 0.06 0.06 0.07 0.07 0.09 0.09 0.09 0.08 0.08 0.08 0.09 0.10
0.00 0.00 0.00 -0.00 -0.00 -0.00 0.00 0.00 0.00 0.00 0.00 0.00 0.00 0.00 0.00 0.00 0.00 0.00 0.00 0.00 0.00 0.00 0.00 0.01 0.01 0.02 0.02 0.01 0.01 0.01 0.01 0.01 0.01 0.01 0.01 0.01 0.01 0.01 0.01 0.01 0.01 0.01 0.01 0.01 0.01 0.01 0.01 0.01 0.01 0.01 0.02 0.03 0.03 0.03 0.03 0.04 0.04 0.06 0.06 0.06 0.06 0.07 0.07 0.08 0.08 0.08 0.08 0.09 0.10
-0.00 -0.00 -0.00 -0.00 0.00 0.00 0.00 0.00 0.00 0.00 0.00 0.00 0.00 0.00 0.00 -0.00 0.00 0.00 0.00 0.00 0.00 0.00 0.00 0.01 0.02 0.01 0.01 0.01 0.01 0.01 0.01 0.01 0.01 0.01 0.01 0.01 0.01 0.01 0.01 0.01 0.01 0.01 0.01 0.01 0.01 0.01 0.01 0.01 0.01 0.01 0.02 0.03 0.04 0.04 0.04 0.04 0.05 0.05 0.05 0.05 0.05 0.06 0.06 0.07 0.09 0.09 0.10 0.11 0.12
-0.00 0.00 0.00 -0.00 -0.00 -0.00 -0.00 -0.00 -0.00 -0.00 -0.00 -0.00 -0.00 -0.00 -0.00 -0.00 -0.00 0.00 0.00 -0.00 0.00 0.00 0.00 0.01 0.01 0.01 0.01 0.01 0.01 0.01 0.01 0.01 0.01 0.01 0.01 0.01 0.01 0.01 0.01 0.01 0.01 0.01 0.01 0.01 0.01 0.01 0.01 0.01 0.02 0.02 0.02 0.03 0.03 0.03 0.03 0.03 0.04 0.05 0.05 0.06 0.05 0.06 0.06 0.08 0.10 0.10 0.11 0.12 0.10
-0.01 -0.00 -0.00 0.00 0.00 0.00 0.00 -0.00 -0.00 -0.00 -0.00 -0.00 -0.00 -0.00 -0.00 -0.00 -0.00 0.00 0.00 0.00 0.00 0.00 0.00 0.00 0.00 0.01 0.01 0.01 0.02 0.02 0.01 0.01 0.01 0.01 0.01 0.01 0.01 0.01 0.01 0.00 0.01 0.01 0.01 0.01 0.01 0.01 0.01 0.01 0.02 0.02 0.03 0.03 0.03 0.03 0.03 0.03 0.05 0.06 0.06 0.06 0.05 0.07 0.07 0.08 0.09 0.09 0.11 0.11 0.09
-0.01 -0.01 -0.01 -0.01 -0.00 -0.00 -0.00 -0.00 0.00 0.00 0.00 0.00 -0.00 0.00 0.00 -0.00 -0.01 -0.00 -0.00 0.00 0.00 0.00 0.00 0.00 0.01 0.01 0.01 0.01 0.02 0.02 0.02 0.01 0.01 0.01 0.01 0.01 0.01 0.01 0.01 0.01 0.01 0.01 0.01 0.01 0.01 0.01 0.01 0.02 0.03 0.03 0.03 0.03 0.04 0.03 0.03 0.03 0.04 0.06 0.06 0.06 0.06 0.06 0.06 0.08 0.08 0.08 0.09 0.10 0.08
-0.01 -0.02 -0.02 -0.03 -0.03 -0.03 -0.02 -0.02 -0.01 -0.01 -0.01 -0.00 -0.00 -0.00 -0.00 -0.00 -0.02 -0.01 -0.01 -0.00 0.00 0.00 0.00 0.00 0.00 0.00 0.00 0.01 0.01 0.01 0.02 0.02 0.01 0.01 0.01 0.01 0.01 0.01 0.01 0.01 0.01 0.01 0.01 0.01 0.01 0.01 0.01 0.02 0.03 0.03 0.03 0.03 0.04 0.03 0.03 0.03 0.04 0.06 0.06 0.06 0.05 0.05 0.05 0.06 0.07 0.07 0.08 0.08 0.08
0.00 0.00 0.00 -0.03 -0.04 -0.04 -0.06 -0.04 -0.04 -0.04 -0.03 -0.03 -0.02 -0.01 -0.01 -0.01 -0.03 -0.02 -0.02 -0.02 -0.01 -0.01 -0.01 0.00 0.00 0.00 0.00 0.01 0.01 0.01 0.01 0.02 0.02 0.01 0.01 0.01 0.01 0.01 0.01 0.01 0.02 0.02 0.02 0.01 0.01 0.01 0.02 0.03 0.03 0.03 0.03 0.03 0.04 0.03 0.03 0.04 0.04 0.05 0.05 0.05 0.05 0.04 0.04 0.04 0.05 0.05 0.07 0.07 0.08
0.00 -0.00 -0.00 -0.00 -0.00 -0.00 -0.02 -0.03 -0.04 -0.04 -0.07 -0.08 -0.08 -0.10 -0.10 -0.10 -0.08 -0.05 -0.05 -0.05 -0.06 -0.03 -0.03 -0.01 -0.00 -0.00 -0.00 0.00 0.01 0.01 0.01 0.01 0.02 0.01 0.01 0.01 0.01 0.01 0.01 0.02 0.02 0.02 0.02 0.02 0.02 0.02 0.02 0.03 0.03 0.03 0.03 0.02 0.03 0.04 0.04 0.04 0.03 0.03 0.03 0.04 0.04 0.05 0.05 0.04 0.05 0.05 0.07 0.07 0.07
-0.01 -0.00 -0.00 -0.00 0.00 0.00 0.00 -0.00 -0.01 -0.01 -0.03 -0.04 -0.07 -0.09 -0.09 -0.13 -0.15 -0.17 -0.17 -0.16 -0.11 -0.05 -0.05 -0.02 -0.01 -0.01 -0.01 -0.00 0.01 0.01 0.01 0.01 0.02 0.02 0.02 0.02 0.01 0.01 0.01 0.02 0.02 0.02 0.02 0.02 0.02 0.02 0.03 0.05 0.04 0.04 0.03 0.03 0.03 0.04 0.04 0.03 0.04 0.04 0.04 0.04 0.05 0.06 0.06 0.05 0.06 0.06 0.07 0.08 0.08
-0.03 -0.01 -0.01 -0.01 -0.00 -0.00 -0.00 -0.00 0.00 0.00 -0.00 -0.01 -0.02 -0.03 -0.03 -0.06 -0.08 -0.18 -0.18 -0.19 -0.15 -0.09 -0.09 -0.06 -0.01 -0.01 -0.01 0.00 0.00 0.00 0.01 0.01 0.02 0.02 0.02 0.02 0.02 0.02 0.02 0.02 0.02 0.02 0.02 0.02 0.02 0.02 0.03 0.05 0.06 0.06 0.04 0.03 0.03 0.04 0.04 0.04 0.04 0.04 0.04 0.04 0.05 0.07 0.07 0.07 0.07 0.07 0.08 0.09 0.10
-0.04 -0.04 -0.04 -0.04 -0.03 -0.03 -0.02 -0.01 -0.01 -0.01 -0.00 -0.01 -0.01 -0.02 -0.02 -0.03 -0.05 -0.11 -0.11 -0.14 -0.14 -0.13 -0.13 -0.09 -0.04 0.00 0.00 0.01 0.01 0.01 0.01 0.02 0.02 0.02 0.02 0.02 0.02 0.02 0.02 0.02 0.02 0.02 0.02 0.03 0.02 0.02 0.04 0.08 0.07 0.07 0.05 0.04 0.04 0.04 0.04 0.04 0.05 0.05 0.05 0.06 0.07 0.08 0.08 0.08 0.08 0.08 0.11 0.11 0.11
-0.03 -0.04 -0.04 -0.05 -0.05 -0.05 -0.05 -0.05 -0.05 -0.05 -0.04 -0.04 -0.04 -0.04 -0.04 -0.05 -0.05 -0.08 -0.08 -0.12 -0.14 -0.15 -0.15 -0.15 -0.08 -0.00 -0.00 0.01 0.02 0.02 0.02 0.02 0.03 0.02 0.02 0.02 0.02 0.02 0.02 0.02 0.02 0.02 0.02 0.02 0.02 0.02 0.06 0.08 0.08 0.08 0.06 0.05 0.05 0.04 0.04 0.03 0.05 0.07 0.07 0.07 0.08 0.10 0.10 0.11 0.11 0.11 0.11 0.13 0.13
-0.03 -0.04 -0.04 -0.04 -0.05 -0.05 -0.06 -0.07 -0.08 -0.08 -0.11 -0.11 -0.08 -0.07 -0.07 -0.07 -0.06 -0.08 -0.08 -0.11 -0.14 -0.17 -0.17 -0.18 -0.14 -0.04 -0.04 -0.01 0.00 0.00 0.02 0.03 0.03 0.02 0.02 0.02 0.02 0.02 0.02 0.02 0.02 0.02 0.02 0.02 0.04 0.04 0.05 0.07 0.07 0.07 0.08 0.07 0.06 0.04 0.04 0.03 0.04 0.06 0.06 0.08 0.09 0.10 0.10 0.10 0.11 0.11 0.09 0.10 0.15
-0.11 -0.10 -0.10 -0.10 -0.10 -0.10 -0.09 -0.10 -0.10 -0.10 -0.13 -0.12 -0.10 -0.10 -0.10 -0.10 -0.08 -0.10 -0.10 -0.12 -0.13 -0.15 -0.15 -0.17 -0.16 -0.12 -0.12 -0.09 -0.05 -0.05 -0.01 0.02 0.03 0.03 0.03 0.02 0.02 0.02 0.02 0.02 0.02 0.01 0.01 0.02 0.01 0.01 0.01 0.03 0.07 0.07 0.08 0.08 0.07 0.06 0.06 0.05 0.05 0.06 0.06 0.07 0.09 0.10 0.10 0.10 0.08 0.08 0.08 0.09 0.11
-0.18 -0.22 -0.22 -0.26 -0.28 -0.28 -0.27 -0.27 -0.25 -0.25 -0.24 -0.24 -0.23 -0.21 -0.21 -0.20 -0.18 -0.15 -0.15 -0.13 -0.12 -0.11 -0.11 -0.10 -0.10 -0.13 -0.13 -0.21 -0.18 -0.18 -0.15 -0.10 -0.05 -0.00 -0.00 -0.00 0.01 0.01 0.01 -0.00 -0.02 -0.02 -0.02 0.02 0.05 0.05 0.05 0.02 0.03 0.03 0.05 0.06 0.08 0.06 0.06 0.05 0.05 0.05 0.05 0.05 0.06 0.07 0.07 0.08 0.06 0.06 0.08 0.11 0.13
-0.17 -0.23 -0.23 -0.29 -0.32 -0.32 -0.35 -0.34 -0.32 -0.32 -0.28 -0.27 -0.27 -0.27 -0.27 -0.28 -0.27 -0.26 -0.26 -0.20 -0.18 -0.16 -0.16 -0.14 -0.12 -0.11 -0.11 -0.15 -0.15 -0.15 -0.14 -0.12 -0.08 -0.04 -0.04 -0.03 -0.01 0.00 0.00 -0.01 -0.02 0.01 0.01 0.05 0.08 0.08 0.06 -0.00 0.02 0.02 0.04 0.06 0.14 0.09 0.09 0.04 0.03 0.03 0.03 0.03 0.04 0.05 0.05 0.04 0.05 0.05 0.07 0.10 0.12
-0.18 -0.23 -0.23 -0.27 -0.33 -0.33 -0.37 -0.37 -0.36 -0.36 -0.35 -0.34 -0.34 -0.34 -0.34 -0.33 -0.33 -0.37 -0.37 -0.32 -0.28 -0.27 -0.27 -0.23 -0.18 -0.15 -0.15 -0.13 -0.14 -0.14 -0.14 -0.12 -0.09 -0.06 -0.06 -0.07 -0.02 -0.02 -0.02 -0.02 -0.02 0.01 0.01 0.04 0.08 0.08 0.07 0.01 0.04 0.04 0.06 0.13 0.17 0.07 0.07 0.02 0.01 0.02 0.02 0.03 0.04 0.04 0.04 0.03 0.04 0.04 0.06 0.08 0.09
-0.21 -0.23 -0.23 -0.25 -0.31 -0.31 -0.34 -0.36 -0.37 -0.37 -0.39 -0.40 -0.39 -0.38 -0.38 -0.37 -0.37 -0.39 -0.39 -0.36 -0.37 -0.37 -0.37 -0.34 -0.28 -0.24 -0.24 -0.20 -0.19 -0.19 -0.16 -0.14 -0.10 -0.08 -0.08 -0.10 -0.07 -0.04 -0.04 -0.04 -0.02 0.02 0.02 0.02 0.01 0.01 0.02 0.09 0.16 0.16 0.22 0.28 0.10 0.04 0.04 0.01 0.01 0.04 0.04 0.05 0.04 0.04 0.04 0.02 0.03 0.03 0.04 0.08 0.10
-0.26 -0.28 -0.28 -0.30 -0.32 -0.32 -0.34 -0.35 -0.36 -0.36 -0.39 -0.38 -0.37 -0.39 -0.39 -0.39 -0.39 -0.37 -0.37 -0.39 -0.43 -0.42 -0.42 -0.39 -0.35 -0.32 -0.32 -0.31 -0.28 -0.28 -0.24 -0.20 -0.15 -0.15 -0.15 -0.11 -0.09 -0.07 -0.07 -0.05 0.00 0.03 0.03 0.03 0.01 0.01 0.09 0.17 0.31 0.31 0.43 0.17 0.02 -0.00 -0.00 0.00 0.01 0.05 0.05 0.05 0.04 0.03 0.03 0.02 0.01 0.01 0.02 0.05 0.10
-0.33 -0.36 -0.36 -0.37 -0.38 -0.38 -0.38 -0.37 -0.37 -0.37 -0.37 -0.37 -0.38 -0.40 -0.40 -0.39 -0.37 -0.41 -0.41 -0.46 -0.47 -0.45 -0.45 -0.41 -0.38 -0.39 -0.39 -0.39 -0.34 -0.34 -0.30 -0.25 -0.20 -0.18 -0.18 -0.16 -0.13 -0.11 -0.11 -0.05 0.01 0.03 0.03 0.02 0.01 0.01 0.32 0.30 0.54 0.54 0.35 0.08 -0.01 -0.01 -0.01 0.00 0.01 0.03 0.03 0.04 0.04 0.03 0.03 0.03 0.03 0.03 0.02 0.04 0.07
-0.47 -0.46 -0.46 -0.45 -0.46 -0.46 -0.45 -0.42 -0.38 -0.38 -0.37 -0.37 -0.38 -0.39 -0.39 -0.40 -0.41 -0.43 -0.43 -0.49 -0.48 -0.46 -0.46 -0.41 -0.40 -0.41 -0.41 -0.40 -0.30 -0.30 -0.28 -0.20 -0.19 -0.20 -0.20 -0.17 -0.14 -0.12 -0.12 -0.05 -0.01 0.03 0.03 0.01 0.04 0.04 0.69 0.63 0.69 0.69 0.35 0.05 -0.01 -0.02 -0.02 -0.01 0.00 0.01 0.01 0.03 0.03 0.03 0.03 0.04 0.04 0.04 0.04 0.07 0.08
-0.53 -0.51 -0.51 -0.51 -0.50 -0.50 -0.48 -0.45 -0.41 -0.41 -0.40 -0.39 -0.39 -0.40 -0.40 -0.41 -0.41 -0.42 -0.42 -0.43 -0.43 -0.44 -0.44 -0.42 -0.39 -0.36 -0.36 -0.31 -0.24 -0.24 -0.17 -0.18 -0.19 -0.21 -0.21 -0.17 -0.14 -0.09 -0.09 -0.09 0.00 0.01 0.01 0.00 0.16 0.16 0.70 0.81 1.14 1.14 0.83 0.04 -0.00 -0.02 -0.02 -0.02 -0.01 -0.01 -0.01 0.00 0.01 0.04 0.04 0.05 0.06 0.06 0.07 0.10 0.10
-0.55 -0.55 -0.55 -0.53 -0.52 -0.52 -0.50 -0.48 -0.42 -0.42 -0.40 -0.38 -0.39 -0.40 -0.40 -0.39 -0.37 -0.38 -0.38 -0.36 -0.36 -0.38 -0.38 -0.38 -0.33 -0.27 -0.27 -0.23 -0.13 -0.13 -0.16 -0.18 -0.22 -0.23 -0.23 -0.16 -0.13 -0.10 -0.10 -0.09 0.01 -0.01 -0.01 0.01 0.37 0.37 0.51 0.78 0.75 0.75 0.58 0.03 0.01 -0.00 -0.00 -0.02 -0.01 -0.01 -0.01 0.00 0.01 0.02 0.02 0.06 0.08 0.08 0.10 0.13 0.12
-0.53 -0.51 -0.51 -0.48 -0.48 -0.48 -0.48 -0.45 -0.38 -0.38 -0.36 -0.36 -0.37 -0.38 -0.38 -0.36 -0.35 -0.34 -0.34 -0.32 -0.32 -0.33 -0.33 -0.31 -0.26 -0.21 -0.21 -0.11 -0.11 -0.11 -0.11 -0.17 -0.21 -0.21 -0.21 -0.14 -0.11 -0.11 -0.11 -0.08 -0.01 -0.01 -0.01 0.01 0.47 0.47 0.52 0.89 0.60 0.60 0.40 0.29 0.02 0.01 0.01 -0.01 -0.01 -0.01 -0.01 -0.00 0.01 0.02 0.02 0.05 0.09 0.09 0.12 0.16 0.15
-0.44 -0.43 -0.43 -0.41 -0.43 -0.43 -0.42 -0.39 -0.34 -0.34 -0.32 -0.33 -0.36 -0.36 -0.36 -0.35 -0.36 -0.33 -0.33 -0.30 -0.29 -0.31 -0.31 -0.27 -0.19 -0.09 -0.09 -0.10 -0.10 -0.10 -0.10 -0.12 -0.17 -0.17 -0.17 -0.12 -0.09 -0.10 -0.10 -0.09 -0.04 -0.06 -0.06 0.03 0.43 0.43 0.54 0.93 0.53 0.53 0.33 0.25 0.06 0.03 0.03 0.01 -0.00 0.00 0.00 0.00 0.02 0.04 0.04 0.08 0.10 0.10 0.13 0.19 0.17
-0.39 -0.38 -0.38 -0.38 -0.40 -0.40 -0.39 -0.37 -0.29 -0.29 -0.28 -0.31 -0.35 -0.35 -0.35 -0.37 -0.37 -0.32 -0.32 -0.27 -0.27 -0.32 -0.32 -0.28 -0.13 -0.11 -0.11 -0.11 -0.11 -0.11 -0.12 -0.12 -0.10 -0.10 -0.10 -0.09 -0.08 -0.10 -0.10 -0.09 -0.05 -0.09 -0.09 0.07 0.37 0.37 0.58 0.95 0.43 0.43 0.28 0.15 0.04 0.03 0.03 0.01 0.00 0.00 0.00 0.01 0.03 0.07 0.07 0.11 0.12 0.12 0.08 0.13 0.21
-0.45 -0.41 -0.41 -0.41 -0.39 -0.39 -0.38 -0.35 -0.25 -0.25 -0.25 -0.29 -0.35 -0.38 -0.38 -0.38 -0.35 -0.28 -0.28 -0.24 -0.27 -0.26 -0.26 -0.20 -0.15 -0.11 -0.11 -0.09 -0.13 -0.13 -0.17 -0.20 -0.13 -0.11 -0.11 -0.11 -0.12 -0.13 -0.13 -0.10 -0.07 -0.11 -0.11 -0.10 0.35 0.35 0.60 0.90 0.37 0.37 0.23 0.07 0.03 0.02 0.02 0.04 0.00 0.01 0.01 0.02 0.05 0.10 0.10 0.12 0.13 0.13 0.08 0.13 0.20
-0.45 -0.43 -0.43 -0.38 -0.37 -0.37 -0.35 -0.32 -0.24 -0.24 -0.25 -0.28 -0.34 -0.36 -0.36 -0.36 -0.33 -0.25 -0.25 -0.21 -0.23 -0.24 -0.24 -0.16 -0.11 -0.07 -0.07 -0.06 -0.09 -0.09 -0.14 -0.15 -0.16 -0.14 -0.14 -0.14 -0.13 -0.14 -0.14 -0.11 -0.11 -0.14 -0.14 -0.13 0.01 0.01 0.54 0.84 0.34 0.34 0.17 0.05 0.02 0.02 0.02 0.04 0.01 0.01 0.01 0.04 0.07 0.12 0.12 0.12 0.12 0.12 0.09 0.14 0.18
-0.42 -0.41 -0.41 -0.38 -0.35 -0.35 -0.32 -0.29 -0.25 -0.25 -0.26 -0.27 -0.29 -0.29 -0.29 -0.25 -0.29 -0.18 -0.18 -0.15 -0.13 -0.19 -0.19 -0.18 -0.11 -0.07 -0.07 -0.05 -0.05 -0.05 -0.08 -0.09 -0.09 -0.13 -0.13 -0.12 -0.10 -0.10 -0.10 -0.12 -0.13 -0.15 -0.15 -0.14 -0.09 -0.09 0.18 0.84 0.28 0.28 0.10 0.03 0.01 0.02 0.02 0.04 0.01 0.00 0.00 0.02 0.09 0.13 0.13 0.16 0.15 0.15 0.09 0.14 0.12
-0.39 -0.39 -0.39 -0.37 -0.35 -0.35 -0.32 -0.29 -0.28 -0.28 -0.27 -0.23 -0.19 -0.17 -0.17 -0.19 -0.25 -0.13 -0.13 -0.10 -0.08 -0.08 -0.08 -0.12 -0.10 -0.07 -0.07 -0.07 -0.05 -0.05 -0.03 -0.03 -0.05 -0.06 -0.06 -0.06 -0.06 -0.05 -0.05 -0.05 -0.08 -0.14 -0.14 -0.17 -0.14 -0.14 0.07 0.81 0.32 0.32 0.07 0.02 0.01 0.02 0.02 0.04 0.01 0.01 0.01 0.01 0.04 0.15 0.15 0.24 0.26 0.26 0.13 0.13 0.08
-0.37 -0.37 -0.37 -0.35 -0.34 -0.34 -0.31 -0.28 -0.24 -0.24 -0.24 -0.20 -0.15 -0.12 -0.12 -0.13 -0.21 -0.12 -0.12 -0.07 -0.05 -0.03 -0.03 -0.04 -0.05 -0.03 -0.03 -0.03 -0.04 -0.04 -0.02 0.00 -0.00 -0.01 -0.01 -0.02 -0.02 -0.02 -0.02 -0.02 -0.01 -0.03 -0.03 0.00 -0.03 -0.03 -0.02 0.35 0.33 0.33 0.05 0.01 0.01 0.03 0.03 0.04 0.01 0.01 0.01 0.03 0.05 0.09 0.09 0.30 0.37 0.37 0.18 0.11 0.04
-0.36 -0.35 -0.35 -0.32 -0.30 -0.30 -0.27 -0.23 -0.20 -0.20 -0.20 -0.18 -0.13 -0.09 -0.09 -0.09 -0.16 -0.13 -0.13 -0.07 -0.04 -0.01 -0.01 -0.01 -0.01 -0.01 -0.01 -0.01 -0.02 -0.02 -0.02 -0.01 0.00 0.00 0.00 -0.00 -0.01 -0.01 -0.01 -0.01 -0.00 0.00 0.00 0.01 0.03 0.03 0.02 0.22 0.69 0.69 0.04 0.01 0.02 0.03 0.03 0.03 0.01 0.01 0.01 0.03 0.06 0.08 0.08 0.13 0.28 0.28 0.26 0.11 0.03
-0.30 -0.30 -0.30 -0.27 -0.25 -0.25 -0.22 -0.19 -0.16 -0.16 -0.16 -0.16 -0.15 -0.11 -0.11 -0.09 -0.17 -0.16 -0.16 -0.09 -0.06 -0.01 -0.01 -0.00 -0.01 -0.01 -0.01 -0.00 -0.00 -0.00 0.00 0.00 -0.00 0.00 0.00 0.00 0.00 0.00 0.00 -0.00 -0.00 0.00 0.00 0.02 0.04 0.04 0.12 0.13 0.56 0.56 0.39 0.01 0.04 0.03 0.03 0.02 0.00 0.01 0.01 0.03 0.06 0.07 0.07 0.10 0.22 0.22 0.60 0.29 0.04
-0.25 -0.24 -0.24 -0.23 -0.21 -0.21 -0.18 -0.15 -0.13 -0.13 -0.13 -0.15 -0.17 -0.16 -0.16 -0.12 -0.17 -0.15 -0.15 -0.10 -0.07 -0.04 -0.04 -0.01 -0.01 -0.01 -0.01 -0.01 -0.00 -0.00 0.01 0.01 0.01 0.00 0.00 0.00 0.00 0.01 0.01 0.00 0.00 0.00 0.00 0.02 0.05 0.05 0.12 0.17 0.42 0.42 0.43 0.08 0.01 0.03 0.03 0.01 0.00 0.01 0.01 0.03 0.07 0.08 0.08 0.09 0.18 0.18 0.64 0.96 0.62
-0.24 -0.24 -0.24 -0.20 -0.17 -0.17 -0.15 -0.14 -0.12 -0.12 -0.10 -0.13 -0.15 -0.16 -0.16 -0.15 -0.17 -0.13 -0.13 -0.11 -0.07 -0.05 -0.05 -0.02 -0.02 -0.01 -0.01 -0.01 -0.00 -0.00 0.01 0.01 0.00 0.00 0.00 0.00 0.00 0.01 0.01 0.00 0.00 0.00 0.00 0.01 0.05 0.05 0.14 0.17 0.28 0.28 0.45 0.10 0.02 0.08 0.08 0.01 0.00 0.01 0.01 0.03 0.07 0.10 0.10 0.11 0.15 0.15 0.41 0.70 0.91
-0.22 -0.22 -0.22 -0.20 -0.16 -0.16 -0.14 -0.12 -0.09 -0.09 -0.07 -0.08 -0.10 -0.10 -0.10 -0.10 -0.22 -0.16 -0.16 -0.11 -0.07 -0.06 -0.06 -0.03 -0.02 -0.01 -0.01 -0.01 -0.01 -0.01 0.00 0.00 0.00 0.00 0.00 0.00 0.00 0.01 0.01 0.02 0.00 0.00 0.00 0.01 0.06 0.06 0.13 0.16 0.18 0.18 0.44 0.13 0.04 0.10 0.10 0.02 0.01 0.02 0.02 0.03 0.06 0.10 0.10 0.12 0.13 0.13 0.25 0.31 0.54
-0.13 -0.14 -0.14 -0.14 -0.13 -0.13 -0.11 -0.07 -0.05 -0.05 -0.04 -0.05 -0.07 -0.08 -0.08 -0.09 -0.19 -0.15 -0.15 -0.11 -0.08 -0.06 -0.06 -0.04 -0.03 -0.02 -0.02 -0.02 -0.01 -0.01 -0.00 0.01 0.00 0.00 0.00 0.00 0.00 0.02 0.02 0.02 0.00 0.00 0.00 0.00 0.07 0.07 0.13 0.12 0.13 0.13 0.39 0.15 0.05 0.11 0.11 0.01 0.00 0.01 0.01 0.03 0.05 0.09 0.09 0.12 0.14 0.14 0.23 0.16 0.18
-0.11 -0.11 -0.11 -0.11 -0.10 -0.10 -0.07 -0.03 -0.01 -0.01 -0.02 -0.02 -0.04 -0.07 -0.07 -0.08 -0.14 -0.09 -0.09 -0.08 -0.06 -0.05 -0.05 -0.04 -0.03 -0.02 -0.02 -0.02 -0.01 -0.01 -0.00 0.01 0.00 0.00 0.00 0.00 0.00 0.02 0.02 0.01 0.00 0.00 0.00 0.00 0.07 0.07 0.13 0.07 0.07 0.07 0.31 0.18 0.06 0.11 0.11 0.02 0.00 0.01 0.01 0.02 0.03 0.08 0.08 0.11 0.15 0.15 0.25 0.18 0.06